Regional Weather Roundup
Issued by NWS

Home | Current Version | Previous Version | Graphics & Text | Print | Product List | Glossary On
Versions: 1 2 3 4 5 6 7 8 9 10 11 12 13 14 15 16 17 18 19 20 21 22 23 24 25 26 27 28 29 30 31 32 33 34 35 36 37 38 39 40 41 42 43 44 45 46 47 48 49 50
000
ASUS43 KLMK 081902
RWRKY
KENTUCKY REGIONAL WEATHER ROUNDUP
NATIONAL WEATHER SERVICE LOUISVILLE KY
200 PM EST MON FEB 08 2016

NOTE "FAIR" INDICATES FEW OR NO CLOUDS BELOW 12,000 FEET
WITH NO SIGNIFICANT WEATHER AND/OR OBSTRUCTIONS TO VISIBILITY.

KYZ001>023-026-027-061>063-070>075-082000-
WESTERN AND SOUTH CENTRAL KENTUCKY

CITY           SKY/WX    TMP DP  RH WIND       PRES   REMARKS
PADUCAH        CLOUDY    37  19  48 NW12G24   29.83F WCI  29
HENDERSON      CLOUDY    30  25  80 W20G30    29.80R WCI  18
OWENSBORO      FLURRIES  35  27  73 NW18      29.78R WCI  24
HOPKINSVILLE   FLURRIES  38  24  55 W17G26    29.78S WCI  29
BOWLING GREEN  CLOUDY    35  30  82 W3        29.76F
GLASGOW        NOT AVBL
$$

KYZ024-025-028>034-038-045-046-053-082000-
NORTH CENTRAL KENTUCKY

CITY           SKY/WX    TMP DP  RH WIND       PRES   REMARKS
LOUISVILLE/SDF LGT SNOW  36  32  85 W23       29.69S WCI  24
LOUISVILLE/LOU PTSUNNY   40  33  76 W12G22    29.68F WCI  33
FORT KNOX      PTSUNNY   38  31  77 SW20G26   29.67S WCI  28
$$

KYZ035>037-039>044-047>052-055>060-089>105-082000-
NORTHEAST KENTUCKY

CITY           SKY/WX    TMP DP  RH WIND       PRES   REMARKS
LEXINGTON      CLOUDY    36  32  85 SW9G21    29.66F WCI  29
COVINGTON      SNOW      33  32  96 W8        29.62F VSB 1/2 WCI  26
FRANKFORT      CLOUDY    39  28  64 W10G17    29.65F WCI  32
$$

KYZ054-064>069-076>088-106>120-082000-
SOUTHEAST KENTUCKY

CITY           SKY/WX    TMP DP  RH WIND       PRES   REMARKS
JACKSON        LGT SNOW  33  31  92 VRB7G22   29.65R VSB 1   WCI  27
LONDON         FLURRIES  38  34  85 W10       29.68S WCI  31
SOMERSET       NOT AVBL
MIDDLESBORO    NOT AVBL
MONTICELLO     CLOUDY    39  29  67 W17G28    29.72F WCI  30
$$




USA.gov is the U.S. government's official web portal to all federal, state and local government web resources and services.